Time,TemperatureF,DewpointF,PressureIn,WindDirection,WindDirectionDegrees,WindSpeedMPH,WindSpeedGustMPH,Humidity,HourlyPrecipIn,Conditions,Clouds,dailyrainin,SoftwareType,DateUTC
2013-03-02 00:07:00,30.0,20.0,30.60,SW,233,6.0,9.0,66,0.00,,,0.00,weatherlink.com 1.10,2013-03-02 07:07:00,
2013-03-02 00:22:00,31.8,20.0,30.59,SW,228,6.0,7.0,62,0.00,,,0.00,weatherlink.com 1.10,2013-03-02 07:22:00,
2013-03-02 00:38:00,34.9,20.0,30.59,SW,220,9.0,9.0,56,0.00,,,0.00,weatherlink.com 1.10,2013-03-02 07:38:00,
2013-03-02 00:53:00,35.3,20.0,30.59,West,271,4.0,12.0,54,0.00,,,0.00,weatherlink.com 1.10,2013-03-02 07:53:00,
2013-03-02 01:08:00,34.6,19.0,30.59,SW,229,6.0,8.0,54,0.00,,,0.00,weatherlink.com 1.10,2013-03-02 08:08:00,
2013-03-02 01:23:00,34.7,19.0,30.59,SW,218,7.0,9.0,53,0.00,,,0.00,weatherlink.com 1.10,2013-03-02 08:23:00,
2013-03-02 01:38:00,32.1,19.0,30.59,WSW,242,5.0,6.0,59,0.00,,,0.00,weatherlink.com 1.10,2013-03-02 08:38:00,
2013-03-02 01:53:00,30.7,19.0,30.60,WSW,251,6.0,7.0,61,0.00,,,0.00,weatherlink.com 1.10,2013-03-02 08:53:00,
2013-03-02 02:08:00,30.0,18.0,30.60,WNW,286,2.0,5.0,62,0.00,,,0.00,weatherlink.com 1.10,2013-03-02 09:08:00,
2013-03-02 02:23:00,29.0,19.0,30.59,SSW,201,1.0,6.0,65,0.00,,,0.00,weatherlink.com 1.10,2013-03-02 09:23:00,
2013-03-02 02:38:00,29.4,18.0,30.59,WSW,246,3.0,5.0,63,0.00,,,0.00,weatherlink.com 1.10,2013-03-02 09:38:00,
2013-03-02 02:54:00,27.9,18.0,30.59,West,261,5.0,6.0,67,0.00,,,0.00,weatherlink.com 1.10,2013-03-02 09:54:00,
2013-03-02 03:08:00,29.1,19.0,30.59,West,278,5.0,7.0,65,0.00,,,0.00,weatherlink.com 1.10,2013-03-02 10:08:00,
2013-03-02 03:23:00,28.7,19.0,30.59,SW,235,5.0,5.0,66,0.00,,,0.00,weatherlink.com 1.10,2013-03-02 10:23:00,
2013-03-02 03:39:00,30.3,19.0,30.57,West,259,5.0,7.0,63,0.00,,,0.00,weatherlink.com 1.10,2013-03-02 10:39:00,
2013-03-02 03:53:00,31.0,19.0,30.57,West,260,6.0,6.0,61,0.00,,,0.00,weatherlink.com 1.10,2013-03-02 10:53:00,
2013-03-02 04:08:00,29.1,18.0,30.57,WSW,241,0.0,5.0,63,0.00,,,0.00,weatherlink.com 1.10,2013-03-02 11:08:00,
2013-03-02 04:23:00,28.4,18.0,30.57,WSW,241,4.0,5.0,66,0.00,,,0.00,weatherlink.com 1.10,2013-03-02 11:23:00,
2013-03-02 04:38:00,28.1,18.0,30.57,WSW,249,1.0,5.0,66,0.00,,,0.00,weatherlink.com 1.10,2013-03-02 11:38:00,
2013-03-02 04:53:00,27.5,18.0,30.58,WSW,239,3.0,7.0,67,0.00,,,0.00,weatherlink.com 1.10,2013-03-02 11:53:00,
2013-03-02 05:08:00,27.3,18.0,30.58,SW,218,3.0,6.0,67,0.00,,,0.00,weatherlink.com 1.10,2013-03-02 12:08:00,
2013-03-02 05:23:00,28.4,18.0,30.58,WSW,246,0.0,5.0,65,0.00,,,0.00,weatherlink.com 1.10,2013-03-02 12:23:00,
2013-03-02 05:38:00,27.2,18.0,30.57,WSW,250,3.0,5.0,67,0.00,,,0.00,weatherlink.com 1.10,2013-03-02 12:38:00,
2013-03-02 05:53:00,25.6,17.0,30.58,WSW,238,2.0,5.0,69,0.00,,,0.00,weatherlink.com 1.10,2013-03-02 12:53:00,
2013-03-02 06:08:00,26.3,17.0,30.58,WSW,247,0.0,4.0,69,0.00,,,0.00,weatherlink.com 1.10,2013-03-02 13:08:00,
2013-03-02 06:23:00,26.1,17.0,30.58,NNW,337,1.0,4.0,69,0.00,,,0.00,weatherlink.com 1.10,2013-03-02 13:23:00,
2013-03-02 06:38:00,24.8,17.0,30.58,West,267,3.0,5.0,71,0.00,,,0.00,weatherlink.com 1.10,2013-03-02 13:38:00,
2013-03-02 06:53:00,24.2,17.0,30.58,WSW,253,3.0,6.0,73,0.00,,,0.00,weatherlink.com 1.10,2013-03-02 13:53:00,
2013-03-02 07:08:00,24.2,16.0,30.58,WSW,253,0.0,4.0,72,0.00,,,0.00,weatherlink.com 1.10,2013-03-02 14:08:00,
2013-03-02 07:23:00,23.5,16.0,30.58,WSW,253,2.0,5.0,73,0.00,,,0.00,weatherlink.com 1.10,2013-03-02 14:23:00,
2013-03-02 07:38:00,26.0,17.0,30.58,WSW,248,5.0,5.0,69,0.00,,,0.00,weatherlink.com 1.10,2013-03-02 14:38:00,
2013-03-02 07:53:00,27.3,18.0,30.58,WSW,248,2.0,3.0,69,0.00,,,0.00,weatherlink.com 1.10,2013-03-02 14:53:00,
2013-03-02 08:08:00,29.4,19.0,30.57,WSW,248,3.0,3.0,65,0.00,,,0.00,weatherlink.com 1.10,2013-03-02 15:08:00,
2013-03-02 08:23:00,31.8,20.0,30.57,WSW,248,3.0,4.0,61,0.00,,,0.00,weatherlink.com 1.10,2013-03-02 15:23:00,
2013-03-02 08:38:00,32.9,20.0,30.57,WSW,245,3.0,6.0,60,0.00,,,0.00,weatherlink.com 1.10,2013-03-02 15:38:00,
2013-03-02 08:53:00,35.9,21.0,30.57,WSW,245,0.0,4.0,55,0.00,,,0.00,weatherlink.com 1.10,2013-03-02 15:53:00,
2013-03-02 09:08:00,39.2,22.0,30.57,WSW,245,0.0,0.0,50,0.00,,,0.00,weatherlink.com 1.10,2013-03-02 16:08:00,
2013-03-02 09:23:00,42.9,21.0,30.55,WSW,245,1.0,2.0,42,0.00,,,0.00,weatherlink.com 1.10,2013-03-02 16:23:00,
2013-03-02 09:39:00,47.0,22.0,30.55,WSW,245,0.0,1.0,37,0.00,,,0.00,weatherlink.com 1.10,2013-03-02 16:39:00,
2013-03-02 09:54:00,46.2,22.0,30.55,WSW,245,1.0,2.0,38,0.00,,,0.00,weatherlink.com 1.10,2013-03-02 16:54:00,
2013-03-02 10:09:00,45.1,21.0,30.54,WSW,245,0.0,2.0,39,0.00,,,0.00,weatherlink.com 1.10,2013-03-02 17:09:00,
2013-03-02 10:24:00,45.1,23.0,30.54,WSW,245,2.0,2.0,42,0.00,,,0.00,weatherlink.com 1.10,2013-03-02 17:24:00,
2013-03-02 10:39:00,44.6,22.0,30.53,WSW,245,2.0,3.0,41,0.00,,,0.00,weatherlink.com 1.10,2013-03-02 17:39:00,
2013-03-02 10:54:00,46.5,21.0,30.52,WSW,245,0.0,2.0,36,0.00,,,0.00,weatherlink.com 1.10,2013-03-02 17:54:00,
2013-03-02 11:09:00,48.0,22.0,30.51,WSW,245,0.0,3.0,36,0.00,,,0.00,weatherlink.com 1.10,2013-03-02 18:09:00,
2013-03-02 11:24:00,48.3,20.0,30.50,WSW,254,0.0,2.0,33,0.00,,,0.00,weatherlink.com 1.10,2013-03-02 18:24:00,
2013-03-02 11:39:00,51.7,20.0,30.50,WSW,254,0.0,1.0,29,0.00,,,0.00,weatherlink.com 1.10,2013-03-02 18:39:00,
2013-03-02 11:54:00,51.7,19.0,30.49,WSW,254,0.0,2.0,28,0.00,,,0.00,weatherlink.com 1.10,2013-03-02 18:54:00,
2013-03-02 12:09:00,49.9,22.0,30.48,South,180,0.0,2.0,33,0.00,,,0.00,weatherlink.com 1.10,2013-03-02 19:09:00,
2013-03-02 12:24:00,50.4,21.0,30.47,South,180,0.0,2.0,32,0.00,,,0.00,weatherlink.com 1.10,2013-03-02 19:24:00,
2013-03-02 12:39:00,52.3,22.0,30.46,South,180,0.0,1.0,30,0.00,,,0.00,weatherlink.com 1.10,2013-03-02 19:39:00,
2013-03-02 12:54:00,51.9,21.0,30.46,South,180,0.0,1.0,30,0.00,,,0.00,weatherlink.com 1.10,2013-03-02 19:54:00,
2013-03-02 13:09:00,51.3,19.0,30.45,South,180,1.0,2.0,28,0.00,,,0.00,weatherlink.com 1.10,2013-03-02 20:09:00,
2013-03-02 13:24:00,50.8,20.0,30.44,South,180,2.0,3.0,30,0.00,,,0.00,weatherlink.com 1.10,2013-03-02 20:24:00,
2013-03-02 13:39:00,50.2,20.0,30.43,South,177,1.0,4.0,31,0.00,,,0.00,weatherlink.com 1.10,2013-03-02 20:39:00,
2013-03-02 13:54:00,51.7,21.0,30.42,South,177,0.0,2.0,30,0.00,,,0.00,weatherlink.com 1.10,2013-03-02 20:54:00,
2013-03-02 14:09:00,50.5,21.0,30.41,SE,145,1.0,4.0,32,0.00,,,0.00,weatherlink.com 1.10,2013-03-02 21:09:00,
2013-03-02 14:24:00,54.1,21.0,30.41,SE,145,2.0,2.0,28,0.00,,,0.00,weatherlink.com 1.10,2013-03-02 21:24:00,
2013-03-02 14:39:00,51.1,22.0,30.41,NNW,336,1.0,4.0,32,0.00,,,0.00,weatherlink.com 1.10,2013-03-02 21:39:00,
2013-03-02 14:54:00,53.8,21.0,30.39,NNW,336,1.0,2.0,28,0.00,,,0.00,weatherlink.com 1.10,2013-03-02 21:54:00,
2013-03-02 15:09:00,53.5,21.0,30.39,SSE,164,0.0,3.0,28,0.00,,,0.00,weatherlink.com 1.10,2013-03-02 22:09:00,
2013-03-02 15:24:00,56.0,23.0,30.38,SSE,164,0.0,1.0,28,0.00,,,0.00,weatherlink.com 1.10,2013-03-02 22:24:00,
2013-03-02 15:39:00,52.6,23.0,30.37,South,170,2.0,6.0,32,0.00,,,0.00,weatherlink.com 1.10,2013-03-02 22:39:00,
2013-03-02 16:09:00,52.9,22.0,30.35,SW,226,7.0,7.0,30,0.00,,,0.00,weatherlink.com 1.10,2013-03-02 23:09:00,
2013-03-02 16:25:00,50.2,25.0,30.35,SSW,212,0.0,8.0,37,0.00,,,0.00,weatherlink.com 1.10,2013-03-02 23:25:00,
2013-03-02 16:40:00,48.3,25.0,30.34,SW,236,4.0,8.0,40,0.00,,,0.00,weatherlink.com 1.10,2013-03-02 23:40:00,
2013-03-02 16:55:00,49.1,26.0,30.33,SW,217,0.0,4.0,41,0.00,,,0.00,weatherlink.com 1.10,2013-03-02 23:55:00,
2013-03-02 17:10:00,48.9,25.0,30.32,SSE,157,0.0,3.0,40,0.00,,,0.00,weatherlink.com 1.10,2013-03-03 00:10:00,
2013-03-02 17:25:00,48.0,24.0,30.32,ENE,64,0.0,2.0,39,0.00,,,0.00,weatherlink.com 1.10,2013-03-03 00:25:00,
2013-03-02 17:40:00,45.7,27.0,30.32,SE,125,0.0,3.0,48,0.00,,,0.00,weatherlink.com 1.10,2013-03-03 00:40:00,
2013-03-02 17:55:00,43.8,26.0,30.31,SE,125,0.0,3.0,50,0.00,,,0.00,weatherlink.com 1.10,2013-03-03 00:55:00,
2013-03-02 18:10:00,42.3,25.0,30.30,SE,125,1.0,3.0,51,0.00,,,0.00,weatherlink.com 1.10,2013-03-03 01:10:00,
2013-03-02 18:25:00,41.1,26.0,30.30,WSW,247,0.0,3.0,55,0.00,,,0.00,weatherlink.com 1.10,2013-03-03 01:25:00,
2013-03-02 18:40:00,40.3,26.0,30.29,WSW,247,4.0,4.0,58,0.00,,,0.00,weatherlink.com 1.10,2013-03-03 01:40:00,
2013-03-02 18:55:00,40.3,26.0,30.28,West,266,4.0,6.0,56,0.00,,,0.00,weatherlink.com 1.10,2013-03-03 01:55:00,
2013-03-02 19:10:00,40.3,26.0,30.27,West,273,2.0,3.0,56,0.00,,,0.00,weatherlink.com 1.10,2013-03-03 02:10:00,
2013-03-02 19:25:00,40.8,26.0,30.26,WSW,238,2.0,4.0,55,0.00,,,0.00,weatherlink.com 1.10,2013-03-03 02:25:00,
2013-03-02 19:40:00,40.9,25.0,30.25,SSW,206,2.0,7.0,53,0.00,,,0.00,weatherlink.com 1.10,2013-03-03 02:40:00,
2013-03-02 19:55:00,43.1,25.0,30.23,SSW,213,5.0,9.0,49,0.00,,,0.00,weatherlink.com 1.10,2013-03-03 02:55:00,
2013-03-02 20:10:00,43.1,25.0,30.22,SW,217,5.0,7.0,49,0.00,,,0.00,weatherlink.com 1.10,2013-03-03 03:10:00,
2013-03-02 20:25:00,40.3,24.0,30.22,SE,141,2.0,5.0,52,0.00,,,0.00,weatherlink.com 1.10,2013-03-03 03:25:00,
2013-03-02 20:40:00,40.6,24.0,30.22,West,267,3.0,5.0,51,0.00,,,0.00,weatherlink.com 1.10,2013-03-03 03:40:00,
2013-03-02 20:55:00,40.2,24.0,30.21,SSE,165,1.0,4.0,53,0.00,,,0.00,weatherlink.com 1.10,2013-03-03 03:55:00,
2013-03-02 21:10:00,39.8,25.0,30.21,WSW,244,4.0,5.0,55,0.00,,,0.00,weatherlink.com 1.10,2013-03-03 04:10:00,
2013-03-02 21:25:00,39.9,25.0,30.20,North,8,9.0,9.0,55,0.00,,,0.00,weatherlink.com 1.10,2013-03-03 04:25:00,
2013-03-02 21:40:00,40.5,26.0,30.20,North,354,3.0,5.0,56,0.00,,,0.00,weatherlink.com 1.10,2013-03-03 04:40:00,
2013-03-02 21:55:00,38.5,27.0,30.19,WNW,282,2.0,5.0,63,0.00,,,0.00,weatherlink.com 1.10,2013-03-03 04:55:00,
2013-03-02 22:10:00,37.0,26.0,30.19,WSW,239,3.0,4.0,64,0.00,,,0.00,weatherlink.com 1.10,2013-03-03 05:10:00,
2013-03-02 22:25:00,35.5,26.0,30.19,WSW,241,2.0,5.0,68,0.00,,,0.00,weatherlink.com 1.10,2013-03-03 05:25:00,
2013-03-02 22:40:00,35.5,26.0,30.18,WSW,240,2.0,5.0,69,0.00,,,0.00,weatherlink.com 1.10,2013-03-03 05:40:00,
2013-03-02 22:55:00,34.4,26.0,30.18,SW,233,0.0,5.0,72,0.00,,,0.00,weatherlink.com 1.10,2013-03-03 05:55:00,
2013-03-02 23:10:00,34.3,26.0,30.17,WSW,237,4.0,5.0,71,0.00,,,0.00,weatherlink.com 1.10,2013-03-03 06:10:00,
2013-03-02 23:25:00,34.7,25.0,30.16,SSW,201,0.0,8.0,69,0.00,,,0.00,weatherlink.com 1.10,2013-03-03 06:25:00,
2013-03-02 23:40:00,35.3,25.0,30.16,West,274,1.0,3.0,67,0.00,,,0.00,weatherlink.com 1.10,2013-03-03 06:40:00,
2013-03-02 23:55:00,34.3,26.0,30.15,SW,230,3.0,4.0,71,0.00,,,0.00,weatherlink.com 1.10,2013-03-03 06:55:00,